EW8487 Chirivel current weather conditions

sailwx.info

Wind from 168

Air temperature 7.8° C
Dewpoint 1.2° C

Last reported at 2020-Jan-17 19:05 UTC.
Time now 2020-Jan-17 19:24 UTC

Location: N 37°36' W 002°16'.
View on Google Maps.

See reports from other nearby stations

  
Tides and Currents Weather Stations Pressure Air Temp Water Temp Dewpoint Dewpoint Depression Visibility Wind Speed Wind Dir Waves Ship Positions
date/time (UTC)wind fromknots sea level pressurealtimeterstation pressurevisibilityair tempwater tempwave heightnotes
2020-Jan-17 19:05 168 7.8
2020-Jan-17 19:00 143 8.9
2020-Jan-17 18:54 159 9.4
2020-Jan-17 18:49 202 9.4
2020-Jan-17 18:44 135 9.4
2020-Jan-17 18:39 131 9.4
2020-Jan-17 18:34 164 9.4
2020-Jan-17 18:29 269 9.4
2020-Jan-17 18:24 129 9.4
2020-Jan-17 18:19 059 9.4
2020-Jan-17 18:14 161 9.4
2020-Jan-17 18:09 155 9.4
2020-Jan-17 18:04 091 9.4
2020-Jan-17 17:59 246 0 gusting 4 10.0
2020-Jan-17 17:54 099 10.0
2020-Jan-17 17:49 237 2 gusting 6 10.0
2020-Jan-17 17:44 093 1 gusting 1 10.0
2020-Jan-17 17:38 165 10.0
2020-Jan-17 17:33 163 10.0
2020-Jan-17 17:28 175 0 gusting 4 10.0
2020-Jan-17 17:23 116 0 gusting 4 10.0
2020-Jan-17 17:18 130 10.6
2020-Jan-17 17:13 277 1 gusting 8 10.6
2020-Jan-17 17:08 318 2 gusting 10 10.6
2020-Jan-17 17:03 260 6 gusting 10 10.6
2020-Jan-17 16:58 192 6 gusting 8 11.7
2020-Jan-17 16:53 274 4 gusting 13 11.7
2020-Jan-17 16:48 015 2 gusting 13 11.7
2020-Jan-17 16:43 244 3 gusting 8 11.7
2020-Jan-17 16:38 089 12.2
2020-Jan-17 16:33 258 2 gusting 10 12.2
2020-Jan-17 16:28 289 5 gusting 10 12.2
2020-Jan-17 16:23 322 3 gusting 10 12.2
2020-Jan-17 16:17 318 5 gusting 10 12.8
2020-Jan-17 16:12 299 1 gusting 10 12.8
2020-Jan-17 16:07 327 5 gusting 10 12.8
2020-Jan-17 16:02 275 6 gusting 10 12.8
2020-Jan-17 15:57 212 5 gusting 10 12.8
2020-Jan-17 15:52 307 4 gusting 13 12.8
2020-Jan-17 15:47 259 5 gusting 13 12.8
2020-Jan-17 15:42 005 4 gusting 8 12.8
2020-Jan-17 15:37 111 1 gusting 8 12.8
2020-Jan-17 15:32 134 0 gusting 8 12.8
2020-Jan-17 15:27 265 1 gusting 10 12.8
2020-Jan-17 15:22 065 12.8
2020-Jan-17 15:17 288 3 gusting 8 13.3
2020-Jan-17 15:12 094 13.3
2020-Jan-17 15:06 272 2 gusting 8 13.3
2020-Jan-17 15:02 306 3 gusting 8 13.3
2020-Jan-17 14:56 157 13.3
2020-Jan-17 14:51 193 13.3
2020-Jan-17 14:46 213 0 gusting 10 13.3
2020-Jan-17 14:41 177 0 gusting 8 12.8
2020-Jan-17 14:36 007 2 gusting 8 12.8
2020-Jan-17 14:31 052 3 gusting 8 12.8
2020-Jan-17 14:26 273 1 gusting 8 12.8
2020-Jan-17 14:21 261 0 gusting 10 12.8
2020-Jan-17 14:16 171 1 gusting 6 12.8
2020-Jan-17 14:11 251 3 gusting 14 12.8
2020-Jan-17 14:06 355 5 gusting 14 12.8
2020-Jan-17 14:01 258 3 gusting 10 12.8
2020-Jan-17 13:56 355 3 gusting 10 12.8
2020-Jan-17 13:50 275 2 gusting 10 12.8
2020-Jan-17 13:45 100 5 gusting 10 12.8
2020-Jan-17 13:40 013 1 gusting 10 12.8
2020-Jan-17 13:35 298 3 gusting 10 12.8
2020-Jan-17 13:30 358 2 gusting 10 12.8
2020-Jan-17 13:25 247 3 gusting 10 12.8
2020-Jan-17 13:20 256 5 gusting 13 12.8
2020-Jan-17 13:15 302 6 gusting 13 12.8
2020-Jan-17 13:10 282 5 gusting 10 12.8
2020-Jan-17 13:05 100 0 gusting 13 12.8
2020-Jan-17 13:00 212 3 gusting 13 12.8
2020-Jan-17 12:55 257 5 gusting 13 12.8
2020-Jan-17 12:50 287 2 gusting 13 12.8
2020-Jan-17 12:44 290 3 gusting 13 12.8
2020-Jan-17 12:39 096 1 gusting 13 12.2
2020-Jan-17 12:34 182 5 gusting 10 12.2
2020-Jan-17 12:29 184 2 gusting 10 12.2
2020-Jan-17 12:24 253 4 gusting 13 12.2
2020-Jan-17 12:19 279 5 gusting 14 12.2
2020-Jan-17 12:14 324 6 gusting 14 12.2
2020-Jan-17 12:09 253 1 gusting 13 12.2
2020-Jan-17 12:04 318 6 gusting 13 12.2
2020-Jan-17 11:59 066 0 gusting 13 11.7
2020-Jan-17 11:54 063 3 gusting 13 12.2
2020-Jan-17 11:49 294 1 gusting 10 12.2
2020-Jan-17 11:44 123 3 gusting 10 12.2
2020-Jan-17 11:39 058 2 gusting 10 11.7
2020-Jan-17 11:34 081 3 gusting 13 11.7
2020-Jan-17 11:29 346 4 gusting 13 11.7
2020-Jan-17 11:24 151 6 gusting 14 11.7
2020-Jan-17 11:19 152 2 gusting 14 11.1
2020-Jan-17 11:14 303 3 gusting 10 11.1
2020-Jan-17 11:08 326 1 gusting 10 11.1
2020-Jan-17 11:03 264 2 gusting 13 11.1
2020-Jan-17 10:58 258 8 gusting 13 11.1
2020-Jan-17 10:53 290 5 gusting 8 11.1
2020-Jan-17 10:48 334 2 gusting 17 11.7
2020-Jan-17 10:43 033 3 gusting 17 11.7
2020-Jan-17 10:38 296 2 gusting 13 10.6
2020-Jan-17 10:33 010 1 gusting 13 10.6
2020-Jan-17 10:28 324 4 gusting 10 10.6
2020-Jan-17 10:23 040 3 gusting 10 10.6
2020-Jan-17 10:18 209 6 gusting 10 10.0
2020-Jan-17 10:13 070 2 gusting 13 10.0
2020-Jan-17 10:08 291 6 gusting 13 10.0
2020-Jan-17 10:03 329 1 gusting 8 10.0
2020-Jan-17 09:58 158 1 gusting 10 10.0
2020-Jan-17 09:53 117 3 gusting 6 10.0
2020-Jan-17 09:48 125 0 gusting 8 10.0
2020-Jan-17 09:43 146 1 gusting 8 10.0
2020-Jan-17 09:37 046 1 gusting 6 9.4
2020-Jan-17 09:32 278 1 gusting 6 9.4
2020-Jan-17 09:27 198 3 gusting 6 9.4
2020-Jan-17 09:22 310 0 gusting 6 9.4
2020-Jan-17 09:17 174 0 gusting 6 9.4
2020-Jan-17 09:12 231 9.4
2020-Jan-17 09:07 158 0 gusting 6 9.4
2020-Jan-17 09:02 159 9.4
2020-Jan-17 08:57 250 1 gusting 6 8.3
2020-Jan-17 08:52 091 0 gusting 6 8.3
2020-Jan-17 08:47 320 3 gusting 6 8.9
2020-Jan-17 08:42 146 2 gusting 6 8.9
2020-Jan-17 08:37 160 1 gusting 6 7.8
2020-Jan-17 08:32 094 0 gusting 6 7.8
2020-Jan-17 08:27 015 1 gusting 6 7.8
2020-Jan-17 08:22 067 1 gusting 6 7.8
2020-Jan-17 08:17 323 1 gusting 6 6.7
2020-Jan-17 08:12 213 2 gusting 6 6.7
2020-Jan-17 08:07 275 2 gusting 8 6.7
2020-Jan-17 08:02 269 4 gusting 8 6.7
2020-Jan-17 07:56 248 4 gusting 13 6.7
2020-Jan-17 07:51 251 1 gusting 13 6.7
2020-Jan-17 07:46 288 6 gusting 10 6.7
2020-Jan-17 07:41 289 5 gusting 8 6.7
2020-Jan-17 07:36 193 3 gusting 8 6.1
2020-Jan-17 07:31 284 5 gusting 10 6.7
2020-Jan-17 07:26 237 4 gusting 10 6.7
2020-Jan-17 07:21 260 5 gusting 10 6.7
2020-Jan-17 07:16 136 3 gusting 8 6.1
2020-Jan-17 07:11 212 4 gusting 10 6.1
2020-Jan-17 07:06 293 1 gusting 10 6.1
2020-Jan-17 07:01 297 3 gusting 10 6.1
2020-Jan-17 06:55 241 3 gusting 10 6.1
2020-Jan-17 06:49 271 6 gusting 10 6.1
2020-Jan-17 06:44 276 1 gusting 6 5.6
2020-Jan-17 06:39 256 1 gusting 6 5.6
2020-Jan-17 06:34 287 6 gusting 6 5.6
2020-Jan-17 06:29 070 5.6
2020-Jan-17 06:24 287 0 gusting 6 5.6
2020-Jan-17 06:19 065 5.6
2020-Jan-17 06:14 043 3 gusting 8 6.1
2020-Jan-17 06:09 282 5 gusting 8 6.1
2020-Jan-17 06:04 292 3 gusting 10 6.1
2020-Jan-17 05:59 318 2 gusting 10 5.6
2020-Jan-17 05:54 267 1 gusting 6 5.6
2020-Jan-17 05:49 129 0 gusting 10 5.6
2020-Jan-17 05:44 327 4 gusting 10 5.6
2020-Jan-17 05:38 265 5 gusting 8 5.6
2020-Jan-17 05:33 299 6 gusting 8 5.0
2020-Jan-17 05:28 127 0 gusting 8 5.0
2020-Jan-17 05:23 148 5.0
2020-Jan-17 05:18 237 4 gusting 8 5.0
2020-Jan-17 05:13 237 4 gusting 6 5.0
2020-Jan-17 05:08 322 1 gusting 8 5.0
2020-Jan-17 05:03 193 3 gusting 8 5.0
2020-Jan-17 04:58 121 5.6
2020-Jan-17 04:53 156 1 gusting 8 5.6
2020-Jan-17 04:48 321 1 gusting 8 5.6
2020-Jan-17 04:43 124 5.6
2020-Jan-17 04:38 285 3 gusting 8 5.0
2020-Jan-17 04:33 325 3 gusting 8 5.0
2020-Jan-17 04:28 070 2 gusting 6 5.0
2020-Jan-17 04:23 067 0 gusting 6 5.0
2020-Jan-17 04:17 160 5.0
2020-Jan-17 04:12 289 2 gusting 6 5.0
2020-Jan-17 04:07 052 0 gusting 6 5.0
2020-Jan-17 04:02 086 5.0
2020-Jan-17 03:57 269 3 gusting 6 5.6
2020-Jan-17 03:52 273 3 gusting 6 5.6
2020-Jan-17 03:47 110 1 gusting 6 5.6
2020-Jan-17 03:42 251 3 gusting 6 5.6
2020-Jan-17 03:37 144 1 gusting 8 5.6
2020-Jan-17 03:32 259 2 gusting 8 5.0
2020-Jan-17 03:27 250 3 gusting 8 5.0
2020-Jan-17 03:22 266 3 gusting 8 5.0
2020-Jan-17 03:17 280 0 gusting 8 5.6
2020-Jan-17 03:12 273 2 gusting 8 5.6
2020-Jan-17 03:07 289 2 gusting 8 5.6
2020-Jan-17 03:02 201 1 gusting 8 5.6
2020-Jan-17 02:57 112 2 gusting 8 5.6
2020-Jan-17 02:52 320 2 gusting 8 5.6
2020-Jan-17 02:46 321 0 gusting 6 5.6
2020-Jan-17 02:41 127 5.6
2020-Jan-17 02:36 131 0 gusting 6 4.4
2020-Jan-17 02:31 152 3.9
2020-Jan-17 02:26 257 2 gusting 4 3.9
2020-Jan-17 02:21 156 3.9
2020-Jan-17 02:16 119 2.8
2020-Jan-17 02:11 133 2.8
2020-Jan-17 02:06 073 2.2
2020-Jan-17 02:01 153 2.2
2020-Jan-17 01:55 128 1.7
2020-Jan-17 01:50 153 1.7
2020-Jan-17 01:45 114 1.7
2020-Jan-17 01:40 139 2.2
2020-Jan-17 01:35 137 2.2
2020-Jan-17 01:30 147 2.2
2020-Jan-17 01:25 150 2.2
2020-Jan-17 01:20 136 2.8
2020-Jan-17 01:14 152 3.3
2020-Jan-17 01:09 136 3.3
2020-Jan-17 01:04 150 3.3
2020-Jan-17 00:59 129 2.8
2020-Jan-17 00:54 132 2.8
2020-Jan-17 00:49 043 2.8
2020-Jan-17 00:44 138 2.8
2020-Jan-17 00:39 087 2.8
2020-Jan-17 00:34 134 2.8
2020-Jan-17 00:29 073 2.8
2020-Jan-17 00:24 147 2.8
2020-Jan-17 00:19 152 3.3
2020-Jan-17 00:14 134 3.3
2020-Jan-17 00:09 132 3.3
2020-Jan-17 00:04 114 3.3
2020-Jan-16 23:59 125 3.9
2020-Jan-16 23:54 133 4.4
2020-Jan-16 23:48 101 4.4
2020-Jan-16 23:43 154 4.4
2020-Jan-16 23:38 133 5.0
2020-Jan-16 23:33 156 5.0
2020-Jan-16 23:28 309 1 gusting 6 5.0
2020-Jan-16 23:23 160 0 gusting 6 5.0
2020-Jan-16 23:18 277 2 gusting 4 5.0
2020-Jan-16 23:13 131 5.0
2020-Jan-16 23:08 062 0 gusting 4 5.0
2020-Jan-16 23:03 252 0 gusting 4 5.0
2020-Jan-16 22:58 299 2 gusting 4 4.4
2020-Jan-16 22:53 126 4.4
2020-Jan-16 22:48 237 4.4
2020-Jan-16 22:43 137 4.4
2020-Jan-16 22:38 164 5.6
2020-Jan-16 22:32 154 6.1
2020-Jan-16 22:27 131 1 gusting 6 6.1
2020-Jan-16 22:22 137 6.1
2020-Jan-16 22:17 236 1 gusting 4 5.6
2020-Jan-16 22:12 153 5.6
2020-Jan-16 22:07 156 5.0
2020-Jan-16 22:02 151 5.0
2020-Jan-16 21:57 134 5.0
2020-Jan-16 21:52 134 5.0
2020-Jan-16 21:47 168 5.0
2020-Jan-16 21:42 137 5.0
2020-Jan-16 21:37 188 5.0
2020-Jan-16 21:32 210 5.0
2020-Jan-16 21:27 329 0 gusting 1 5.6
2020-Jan-16 21:22 205 5.6
2020-Jan-16 21:17 155 5.6
2020-Jan-16 21:12 213 5.6
2020-Jan-16 21:07 129 5.6
2020-Jan-16 21:02 168 5.6
2020-Jan-16 20:57 196 0 gusting 4 5.6
2020-Jan-16 20:51 040 5.6
2020-Jan-16 20:46 147 5.6
2020-Jan-16 20:41 161 0 gusting 4 5.6
2020-Jan-16 20:36 166 0 gusting 4 5.0
2020-Jan-16 20:31 128 5.6
2020-Jan-16 20:26 237 5.6
2020-Jan-16 20:21 237 0 gusting 4 5.6
2020-Jan-16 20:16 273 0 gusting 1 3.9
2020-Jan-16 20:11 256 0 gusting 1 3.3
2020-Jan-16 20:06 294 1 gusting 1 3.3
2020-Jan-16 20:01 048 3.3
2020-Jan-16 19:56 141 3.3
2020-Jan-16 19:50 158 0 gusting 1 3.3
2020-Jan-16 19:45 128 3.3
2020-Jan-16 19:40 095 3.9
2020-Jan-16 19:35 108 4.4
2020-Jan-16 19:30 156 4.4
2020-Jan-16 19:25 126 4.4
2020-Jan-16 19:20 135 5.0
2020-Jan-16 19:15 126 5.6
2020-Jan-16 19:10 159 5.6
2020-Jan-16 19:05 139 5.6
2020-Jan-16 19:00 150 6.1
2020-Jan-16 18:55 153 6.1
2020-Jan-16 18:50 175 6.1
2020-Jan-16 18:45 201 6.1
2020-Jan-16 18:39 132 6.7
2020-Jan-16 18:34 141 6.7
2020-Jan-16 18:29 253 6.7
2020-Jan-16 18:24 089 6.7
2020-Jan-16 18:19 127 6.7
2020-Jan-16 18:14 196 7.2
2020-Jan-16 18:09 139 7.2
2020-Jan-16 18:04 179 7.2
2020-Jan-16 17:59 154 7.8
2020-Jan-16 17:54 133 7.8
2020-Jan-16 17:49 153 8.3
2020-Jan-16 17:44 155 8.3
2020-Jan-16 17:39 212 8.9
2020-Jan-16 17:33 206 8.9
2020-Jan-16 17:28 153 8.9
2020-Jan-16 17:23 177 8.9
2020-Jan-16 17:18 061 10.6
2020-Jan-16 17:13 136 10.6
2020-Jan-16 17:08 136 11.1
2020-Jan-16 17:03 138 11.1
2020-Jan-16 16:58 151 12.2
2020-Jan-16 16:53 113 12.2
2020-Jan-16 16:48 154 0 gusting 4 12.2
2020-Jan-16 16:43 291 1 gusting 4 12.2
2020-Jan-16 16:38 154 12.8
2020-Jan-16 16:33 166 12.8
2020-Jan-16 16:28 050 0 gusting 4 12.8
2020-Jan-16 16:23 307 1 gusting 4 12.8
2020-Jan-16 16:17 350 0 gusting 6 13.3
2020-Jan-16 16:12 144 1 gusting 6 13.3
2020-Jan-16 16:07 192 13.3
2020-Jan-16 16:02 166 13.3
2020-Jan-16 15:57 252 2 gusting 6 13.9
2020-Jan-16 15:52 011 0 gusting 6 13.9
2020-Jan-16 15:47 034 13.9
2020-Jan-16 15:42 252 0 gusting 6 13.9
2020-Jan-16 15:37 295 1 gusting 6 14.4
2020-Jan-16 15:32 288 2 gusting 4 15.0
2020-Jan-16 15:27 189 0 gusting 4 15.0
2020-Jan-16 15:22 287 1 gusting 4 15.0
2020-Jan-16 15:17 168 15.0
2020-Jan-16 15:12 162 1 gusting 6 15.0
2020-Jan-16 15:07 161 15.0
2020-Jan-16 15:02 127 1 gusting 6 15.6
2020-Jan-16 14:56 261 2 gusting 6 15.6
2020-Jan-16 14:51 148 15.6
2020-Jan-16 14:46 324 15.6
2020-Jan-16 14:41 176 15.6
2020-Jan-16 14:36 299 1 gusting 4 15.6
2020-Jan-16 14:31 206 1 gusting 4 15.6
2020-Jan-16 14:26 323 0 gusting 4 15.6
2020-Jan-16 14:21 142 0 gusting 4 15.6
2020-Jan-16 14:16 084 0 gusting 4 15.0
2020-Jan-16 14:11 247 1 gusting 4 15.0
2020-Jan-16 14:06 165 0 gusting 4 15.0
2020-Jan-16 14:01 170 1 gusting 6 13.9
2020-Jan-16 13:55 139 1 gusting 10 13.9
2020-Jan-16 13:50 134 13.9
2020-Jan-16 13:45 140 0 gusting 4 13.9
2020-Jan-16 13:40 158 13.9
2020-Jan-16 13:35 189 2 gusting 6 13.9
2020-Jan-16 13:30 122 0 gusting 6 13.3
2020-Jan-16 13:25 175 3 gusting 6 13.3
2020-Jan-16 13:20 130 13.3
2020-Jan-16 13:15 175 13.3
2020-Jan-16 13:10 131 1 gusting 6 13.3
2020-Jan-16 13:04 106 3 gusting 6 13.3
2020-Jan-16 12:59 133 13.9
2020-Jan-16 12:54 133 13.9
2020-Jan-16 12:49 126 3 gusting 6 13.9
2020-Jan-16 12:44 166 1 gusting 6 13.9
2020-Jan-16 12:39 105 13.3
2020-Jan-16 12:34 162 0 gusting 8 13.3
2020-Jan-16 12:29 102 2 gusting 8 13.3
2020-Jan-16 12:24 190 3 gusting 6 13.3
2020-Jan-16 12:19 170 5 gusting 6 13.3
2020-Jan-16 12:14 186 3 gusting 8 13.3
2020-Jan-16 12:09 158 3 gusting 8 13.3
2020-Jan-16 12:04 165 1 gusting 8 13.3
2020-Jan-16 11:59 179 0 gusting 8 13.3
2020-Jan-16 11:54 190 3 gusting 8 13.3
2020-Jan-16 11:49 139 2 gusting 4 13.3
2020-Jan-16 11:44 171 0 gusting 4 13.3
2020-Jan-16 11:38 138 0 gusting 8 13.3
2020-Jan-16 11:33 144 2 gusting 8 12.8
2020-Jan-16 11:28 131 0 gusting 6 12.8
2020-Jan-16 11:23 125 2 gusting 6 13.3
2020-Jan-16 11:18 093 0 gusting 6 12.2
2020-Jan-16 11:13 099 0 gusting 6 12.2
2020-Jan-16 11:08 141 3 gusting 6 12.2
2020-Jan-16 11:03 161 2 gusting 6 12.2
2020-Jan-16 10:58 115 3 gusting 4 12.8
2020-Jan-16 10:53 131 0 gusting 4 12.8
2020-Jan-16 10:48 158 12.8
2020-Jan-16 10:43 158 11.7
2020-Jan-16 10:37 124 11.7
2020-Jan-16 10:32 122 11.7
2020-Jan-16 10:27 123 11.7
2020-Jan-16 10:22 138 0 gusting 4 11.1
2020-Jan-16 10:17 115 11.1
2020-Jan-16 10:12 096 0 gusting 1 11.7
2020-Jan-16 10:07 121 11.7
2020-Jan-16 10:02 123 10.6
2020-Jan-16 09:57 133 10.0
2020-Jan-16 09:52 131 10.0
2020-Jan-16 09:47 194 9.4
2020-Jan-16 09:42 128 9.4
2020-Jan-16 09:37 158 9.4
2020-Jan-16 09:32 171 8.9
2020-Jan-16 09:27 123 8.9
2020-Jan-16 09:21 142 8.3
2020-Jan-16 09:16 140 8.3
2020-Jan-16 09:11 132 7.8
2020-Jan-16 09:06 134 7.8
2020-Jan-16 09:01 131 5.6
2020-Jan-16 08:56 133 4.4
2020-Jan-16 08:51 127 4.4
2020-Jan-16 08:46 134 3.9
2020-Jan-16 08:41 287 2.8
2020-Jan-16 08:36 136 2.8
2020-Jan-16 08:31 211 2.2
2020-Jan-16 08:26 136 2.2
2020-Jan-16 08:21 183 0.6
2020-Jan-16 08:16 130 -0.0
2020-Jan-16 08:10 176 -0.0
2020-Jan-16 08:05 145 -0.0
2020-Jan-16 08:00 138 -1.7
2020-Jan-16 07:55 154 -1.7
2020-Jan-16 07:50 193 -1.7
2020-Jan-16 07:45 329 0 gusting 1 -1.7
2020-Jan-16 07:40 153 -2.2
2020-Jan-16 07:35 141 -2.2
2020-Jan-16 07:30 112 -2.2
2020-Jan-16 07:25 151 -2.2
2020-Jan-16 07:20 156 -2.2
2020-Jan-16 07:15 260 -2.2
2020-Jan-16 07:10 163 -2.2
2020-Jan-16 07:04 126 -2.2
2020-Jan-16 06:59 116 -2.2
2020-Jan-16 06:54 149 -2.2
2020-Jan-16 06:49 102 -2.2
2020-Jan-16 06:44 124 -2.2
2020-Jan-16 06:39 152 -2.2
2020-Jan-16 06:34 210 -2.2
2020-Jan-16 06:29 168 -2.2
2020-Jan-16 06:24 154 -2.2
2020-Jan-16 06:19 141 -1.7
2020-Jan-16 06:14 130 -1.1
2020-Jan-16 06:09 128 -1.1
2020-Jan-16 06:04 150 -1.1
2020-Jan-16 05:59 106 -1.7
2020-Jan-16 05:54 151 -1.7
2020-Jan-16 05:49 196 -1.7
2020-Jan-16 05:44 163 -1.7
2020-Jan-16 05:39 158 -1.7
2020-Jan-16 05:34 156 -1.7
2020-Jan-16 05:29 157 -1.7
2020-Jan-16 05:23 152 -1.7
2020-Jan-16 05:18 150 -1.7
2020-Jan-16 05:13 152 -1.7
2020-Jan-16 05:08 153 -1.7
2020-Jan-16 05:03 176 -1.7
2020-Jan-16 04:58 140 -1.7
2020-Jan-16 04:53 211 -1.7
2020-Jan-16 04:48 146 -1.7
2020-Jan-16 04:43 154 -1.7
2020-Jan-16 04:38 150 -1.1
2020-Jan-16 04:33 107 -1.1
2020-Jan-16 04:28 240 -1.1
2020-Jan-16 04:23 152 -1.1
2020-Jan-16 04:18 159 -1.7
2020-Jan-16 04:13 164 -1.7
2020-Jan-16 04:07 151 -1.7
2020-Jan-16 04:02 150 -1.7
2020-Jan-16 03:57 150 -1.7
2020-Jan-16 03:52 150 -1.7
2020-Jan-16 03:47 180 -1.7
2020-Jan-16 03:42 237 -1.7
2020-Jan-16 03:37 152 -1.1
2020-Jan-16 03:32 158 -1.1
2020-Jan-16 03:27 148 -1.1
2020-Jan-16 03:22 151 -1.1
2020-Jan-16 03:17 208 -1.1
2020-Jan-16 03:12 184 -1.1
2020-Jan-16 03:07 155 -1.1
2020-Jan-16 03:02 165 -1.1
2020-Jan-16 02:57 173 -1.1
2020-Jan-16 02:52 153 -1.1
2020-Jan-16 02:47 133 -1.1
2020-Jan-16 02:41 177 -1.1
2020-Jan-16 02:36 148 -1.1
2020-Jan-16 02:31 151 -1.1
2020-Jan-16 02:26 151 -1.1
2020-Jan-16 02:21 132 -1.1
2020-Jan-16 02:16 271 -0.6
2020-Jan-16 02:11 237 -0.6
2020-Jan-16 02:06 153 -0.6
2020-Jan-16 02:01 192 -0.6
2020-Jan-16 01:56 156 -0.6
2020-Jan-16 01:51 151 -0.6
2020-Jan-16 01:46 128 -0.6
2020-Jan-16 01:41 150 -0.6
2020-Jan-16 01:36 162 -0.6
2020-Jan-16 01:31 276 -0.6
2020-Jan-16 01:26 152 -0.6
2020-Jan-16 01:20 150 -0.0
2020-Jan-16 01:15 190 -0.0
2020-Jan-16 01:10 148 -0.0
2020-Jan-16 01:05 137 -0.0
2020-Jan-16 01:00 140 -0.0
2020-Jan-16 00:55 215 -0.0
2020-Jan-16 00:50 153 -0.0
2020-Jan-16 00:45 169 -0.0
2020-Jan-16 00:40 159 -0.0
2020-Jan-16 00:35 122 -0.0
2020-Jan-16 00:30 170 -0.0
2020-Jan-16 00:25 152 -0.0
2020-Jan-16 00:19 162 -0.0
2020-Jan-16 00:14 149 -0.0
2020-Jan-16 00:09 152 0.6
2020-Jan-16 00:04 191 0.6
2020-Jan-15 23:59 155 0.6
2020-Jan-15 23:54 152 0.6
2020-Jan-15 23:49 150 -0.0
2020-Jan-15 23:44 209 0.6
2020-Jan-15 23:39 173 0.6
2020-Jan-15 23:34 184 0.6
2020-Jan-15 23:29 135 0.6
2020-Jan-15 23:24 150 0.6
2020-Jan-15 23:19 210 1.1
2020-Jan-15 23:14 209 1.7
2020-Jan-15 23:09 131 1.7
2020-Jan-15 23:03 152 1.7
2020-Jan-15 22:58 120 2.2
2020-Jan-15 22:53 129 2.2
2020-Jan-15 22:48 180 2.2
2020-Jan-15 22:43 317 2.2
2020-Jan-15 22:38 277 1.7
2020-Jan-15 22:33 152 1.7
2020-Jan-15 22:28 154 1.7
2020-Jan-15 22:23 153 1.7
2020-Jan-15 22:18 319 2.2
2020-Jan-15 22:13 205 2.2
2020-Jan-15 22:08 152 2.2
2020-Jan-15 22:03 069 2.2
2020-Jan-15 21:58 127 1.7
2020-Jan-15 21:53 147 1.7
2020-Jan-15 21:48 199 1.7
2020-Jan-15 21:43 152 1.7
2020-Jan-15 21:37 329 1.7
2020-Jan-15 21:32 157 1.7
2020-Jan-15 21:27 144 2.2
2020-Jan-15 21:22 280 2.2
2020-Jan-15 21:17 134 2.8
2020-Jan-15 21:12 159 2.8
2020-Jan-15 21:07 085 2.8
2020-Jan-15 21:02 149 2.8
2020-Jan-15 20:57 139 2.8
2020-Jan-15 20:52 177 2.2
2020-Jan-15 20:47 157 2.2
2020-Jan-15 20:41 143 2.2
2020-Jan-15 20:36 109 3.3
2020-Jan-15 20:31 128 3.3
2020-Jan-15 20:26 147 3.3
2020-Jan-15 20:21 137 3.9
2020-Jan-15 20:16 136 3.9
2020-Jan-15 20:11 109 3.9
2020-Jan-15 20:06 182 3.9
2020-Jan-15 20:01 154 4.4
2020-Jan-15 19:56 171 5.0
2020-Jan-15 19:51 167 5.0
2020-Jan-15 19:46 159 5.0
2020-Jan-15 19:41 147 5.0
2020-Jan-15 19:36 155 5.0
2020-Jan-15 19:31 150 5.0
2020-Jan-15 19:25 147 5.6
2020-Jan-15 19:20 5.0
2020-Jan-15 19:15 077 5.6
2020-Jan-15 19:10 138 5.6
2020-Jan-15 19:05 193 5.6
2020-Jan-15 19:00 063 5.0